AL, 05, 1906090312,   , BEST,   0, 102N,  330W,  35,     , TS, , , , , , , , , , , , , ,    UNNAMED
AL, 05, 1906090318,   , BEST,   0, 103N,  337W,  35,     , TS, , , , , , , , , , , , , ,    UNNAMED
AL, 05, 1906090400,   , BEST,   0, 103N,  342W,  35,     , TS, , , , , , , , , , , , , ,    UNNAMED
AL, 05, 1906090406,   , BEST,   0, 104N,  349W,  35,     , TS, , , , , , , , , , , , , ,    UNNAMED
AL, 05, 1906090412,   , BEST,   0, 105N,  357W,  35,     , TS, , , , , , , , , , , , , ,    UNNAMED
AL, 05, 1906090418,   , BEST,   0, 106N,  366W,  35,     , TS, , , , , , , , , , , , , ,    UNNAMED
AL, 05, 1906090500,   , BEST,   0, 109N,  376W,  35,     , TS, , , , , , , , , , , , , ,    UNNAMED
AL, 05, 1906090506,   , BEST,   0, 112N,  385W,  35,     , TS, , , , , , , , , , , , , ,    UNNAMED
AL, 05, 1906090512,   , BEST,   0, 116N,  395W,  35,     , TS, , , , , , , , , , , , , ,    UNNAMED
AL, 05, 1906090518,   , BEST,   0, 120N,  405W,  35,     , TS, , , , , , , , , , , , , ,    UNNAMED
AL, 05, 1906090600,   , BEST,   0, 124N,  414W,  35,     , TS, , , , , , , , , , , , , ,    UNNAMED
AL, 05, 1906090606,   , BEST,   0, 128N,  423W,  35,     , TS, , , , , , , , , , , , , ,    UNNAMED
AL, 05, 1906090612,   , BEST,   0, 132N,  432W,  35,     , TS, , , , , , , , , , , , , ,    UNNAMED
AL, 05, 1906090618,   , BEST,   0, 137N,  442W,  35,     , TS, , , , , , , , , , , , , ,    UNNAMED
AL, 05, 1906090700,   , BEST,   0, 141N,  449W,  40,     , TS, , , , , , , , , , , , , ,    UNNAMED
AL, 05, 1906090706,   , BEST,   0, 146N,  456W,  40,     , TS, , , , , , , , , , , , , ,    UNNAMED
AL, 05, 1906090712,   , BEST,   0, 151N,  462W,  40,     , TS, , , , , , , , , , , , , ,    UNNAMED
AL, 05, 1906090718,   , BEST,   0, 153N,  466W,  40,     , TS, , , , , , , , , , , , , ,    UNNAMED
AL, 05, 1906090800,   , BEST,   0, 155N,  471W,  40,     , TS, , , , , , , , , , , , , ,    UNNAMED
AL, 05, 1906090806,   , BEST,   0, 157N,  475W,  40,     , TS, , , , , , , , , , , , , ,    UNNAMED
AL, 05, 1906090812,   , BEST,   0, 160N,  480W,  40,     , TS, , , , , , , , , , , , , ,    UNNAMED
AL, 05, 1906090818,   , BEST,   0, 164N,  484W,  40,     , TS, , , , , , , , , , , , , ,    UNNAMED
AL, 05, 1906090900,   , BEST,   0, 169N,  488W,  45,     , TS, , , , , , , , , , , , , ,    UNNAMED
AL, 05, 1906090906,   , BEST,   0, 175N,  491W,  45,     , TS, , , , , , , , , , , , , ,    UNNAMED
AL, 05, 1906090912,   , BEST,   0, 180N,  493W,  45,     , TS, , , , , , , , , , , , , ,    UNNAMED
AL, 05, 1906090918,   , BEST,   0, 184N,  496W,  45,     , TS, , , , , , , , , , , , , ,    UNNAMED
AL, 05, 1906091000,   , BEST,   0, 188N,  499W,  50,     , TS, , , , , , , , , , , , , ,    UNNAMED
AL, 05, 1906091006,   , BEST,   0, 193N,  503W,  50,     , TS, , , , , , , , , , , , , ,    UNNAMED
AL, 05, 1906091012,   , BEST,   0, 197N,  507W,  50,     , TS, , , , , , , , , , , , , ,    UNNAMED
AL, 05, 1906091018,   , BEST,   0, 202N,  513W,  50,     , TS, , , , , , , , , , , , , ,    UNNAMED
AL, 05, 1906091100,   , BEST,   0, 206N,  521W,  55,     , TS, , , , , , , , , , , , , ,    UNNAMED
AL, 05, 1906091106,   , BEST,   0, 208N,  530W,  55,     , TS, , , , , , , , , , , , , ,    UNNAMED
AL, 05, 1906091112,   , BEST,   0, 210N,  540W,  55,     , TS, , , , , , , , , , , , , ,    UNNAMED
AL, 05, 1906091118,   , BEST,   0, 214N,  553W,  55,     , TS, , , , , , , , , , , , , ,    UNNAMED
AL, 05, 1906091200,   , BEST,   0, 218N,  565W,  60,     , TS, , , , , , , , , , , , , ,    UNNAMED
AL, 05, 1906091206,   , BEST,   0, 222N,  577W,  60,     , TS, , , , , , , , , , , , , ,    UNNAMED
AL, 05, 1906091212,   , BEST,   0, 227N,  590W,  65,     , HU, , , , , , , , , , , , , ,    UNNAMED
AL, 05, 1906091218,   , BEST,   0, 230N,  602W,  65,     , HU, , , , , , , , , , , , , ,    UNNAMED
AL, 05, 1906091300,   , BEST,   0, 232N,  612W,  70,     , HU, , , , , , , , , , , , , ,    UNNAMED
AL, 05, 1906091306,   , BEST,   0, 236N,  623W,  70,     , HU, , , , , , , , , , , , , ,    UNNAMED
AL, 05, 1906091312,   , BEST,   0, 243N,  633W,  75,     , HU, , , , , , , , , , , , , ,    UNNAMED
AL, 05, 1906091318,   , BEST,   0, 253N,  641W,  75,     , HU, , , , , , , , , , , , , ,    UNNAMED
AL, 05, 1906091400,   , BEST,   0, 266N,  647W,  80,     , HU, , , , , , , , , , , , , ,    UNNAMED
AL, 05, 1906091406,   , BEST,   0, 279N,  655W,  80,     , HU, , , , , , , , , , , , , ,    UNNAMED
AL, 05, 1906091412,   , BEST,   0, 290N,  663W,  80,     , HU, , , , , , , , , , , , , ,    UNNAMED
AL, 05, 1906091418,   , BEST,   0, 295N,  667W,  80,     , HU, , , , , , , , , , , , , ,    UNNAMED
AL, 05, 1906091500,   , BEST,   0, 299N,  671W,  80,     , HU, , , , , , , , , , , , , ,    UNNAMED
AL, 05, 1906091506,   , BEST,   0, 302N,  675W,  80,     , HU, , , , , , , , , , , , , ,    UNNAMED
AL, 05, 1906091512,   , BEST,   0, 305N,  680W,  80,     , HU, , , , , , , , , , , , , ,    UNNAMED
AL, 05, 1906091518,   , BEST,   0, 309N,  685W,  80,     , HU, , , , , , , , , , , , , ,    UNNAMED
AL, 05, 1906091600,   , BEST,   0, 312N,  690W,  80,     , HU, , , , , , , , , , , , , ,    UNNAMED
AL, 05, 1906091606,   , BEST,   0, 315N,  697W,  80,     , HU, , , , , , , , , , , , , ,    UNNAMED
AL, 05, 1906091612,   , BEST,   0, 317N,  707W,  80,     , HU, , , , , , , , , , , , , ,    UNNAMED
AL, 05, 1906091618,   , BEST,   0, 320N,  720W,  80,     , HU, , , , , , , , , , , , , ,    UNNAMED
AL, 05, 1906091700,   , BEST,   0, 320N,  734W,  80,     , HU, , , , , , , , , , , , , ,    UNNAMED
AL, 05, 1906091706,   , BEST,   0, 321N,  751W,  80,     , HU, , , , , , , , , , , , , ,    UNNAMED
AL, 05, 1906091712,   , BEST,   0, 323N,  767W,  80,     , HU, , , , , , , , , , , , , ,    UNNAMED
AL, 05, 1906091718,   , BEST,   0, 329N,  782W,  80,  977, HU, , , , , , , , , , , , , ,    UNNAMED
AL, 05, 1906091722,   , BEST,   0, 333N,  792W,  80,  977, HU, , , , , , , , , , , , , ,    UNNAMED
AL, 05, 1906091800,   , BEST,   0, 335N,  798W,  60,     , TS, , , , , , , , , , , , , ,    UNNAMED
AL, 05, 1906091806,   , BEST,   0, 343N,  815W,  40,     , TS, , , , , , , , , , , , , ,    UNNAMED
AL, 05, 1906091812,   , BEST,   0, 350N,  830W,  30,     , TD, , , , , , , , , , , , , ,    UNNAMED
AL, 05, 1906091818,   , BEST,   0, 355N,  845W,  30,     , TD, , , , , , , , , , , , , ,    UNNAMED
